Change the Weather History Date:

Tuesday, April 22, 2014

  Actual Average (KORH) Record (KORH)
Temperature  
Mean Temperature 62 °F 49 °F  
Max Temperature 78 °F 58 °F 84 °F (1973)
Min Temperature 48 °F 39 °F 23 °F (1981)
Degree Days  
Heating Degree Days 2 17  
Month to date heating degree days 452  
Since 1 July heating degree days 6228  
Cooling Degree Days 0 0  
Month to date cooling degree days 0  
Year to date cooling degree days 0  
Growing Degree Days 12 (Base 50)    
Moisture  
Dew Point 39 °F    
Average Humidity 45    
Maximum Humidity 81    
Minimum Humidity 21    
Precipitation  
Precipitation 0.01 in 0.13 in 2.05 in (1937)
Month to date precipitation 3.08  
Year to date precipitation 14.01  
Sea Level Pressure  
Sea Level Pressure 29.61 in    
Wind  
Wind Speed 7 mph (SW)    
Max Wind Speed 15 mph    
Max Gust Speed 23 mph    
Visibility 10 miles    
Events Rain    
T = Trace of Precipitation, MM = Missing Value Source: NWS Daily Summary

Daily Weather History Graph

Daily Weather History Graph

Search for Another Location

Airport or City:

Trip Planner

Search our weather history database for the weather conditions in past years. The results will help you decide how hot, cold, wet, or windy it might be!

Date:

Astronomy

Apr. 22, 2014 Rise Set
Actual Time 5:54 AM EDT 7:36 PM EDT
Civil Twilight 5:25 AM EDT 8:06 PM EDT
Nautical Twilight 4:48 AM EDT 8:43 PM EDT
Astronomical Twilight 4:10 AM EDT 9:22 PM EDT
Moon 1:50 AM EDT (4/22) 12:26 PM EDT (4/22)
Length of Visible Light 14h 41m
Length of Day
13h 41m
Last Quarter, 46% of the Moon is Illuminated
Apr 22
Last Quarter
Apr 29
New
May 6
First Quarter
May 14
Full
May 21
Last Quarter

Hourly Weather History & Observations

Time (EDT) Temp. Dew Point Humidity Pressure Visibility Wind Dir Wind Speed Gust Speed Precip Events Conditions
12:52 AM 54.0 °F 33.1 °F 45% 29.81 in 10.0 mi NW 6.9 mph - N/A   Clear
1:52 AM 53.1 °F 33.1 °F 47% 29.80 in 10.0 mi NW 6.9 mph - N/A   Clear
2:52 AM 54.0 °F 35.1 °F 49% 29.77 in 10.0 mi West 5.8 mph - N/A   Partly Cloudy
3:52 AM 53.1 °F 35.1 °F 50% 29.75 in 10.0 mi North 4.6 mph - N/A   Partly Cloudy
4:52 AM 52.0 °F 37.0 °F 57% 29.74 in 10.0 mi NW 6.9 mph - N/A   Mostly Cloudy
5:52 AM 51.1 °F 39.0 °F 63% 29.73 in 10.0 mi NW 6.9 mph - N/A   Clear
6:52 AM 48.9 °F 39.0 °F 69% 29.73 in 10.0 mi Calm Calm - N/A   Scattered Clouds
7:52 AM 55.0 °F 39.0 °F 55% 29.71 in 10.0 mi Calm Calm - N/A   Clear
8:52 AM 57.0 °F 37.9 °F 49% 29.70 in 10.0 mi SSE 3.5 mph - N/A   Clear
9:52 AM 61.0 °F 37.0 °F 41% 29.67 in 10.0 mi Calm Calm - N/A   Clear
10:52 AM 68.0 °F 34.0 °F 28% 29.64 in 10.0 mi South 8.1 mph - N/A   Clear
11:52 AM 72.0 °F 34.0 °F 25% 29.60 in 10.0 mi South 12.7 mph 18.4 mph N/A   Clear
12:52 PM 75.0 °F 32.0 °F 21% 29.57 in 10.0 mi SSW 11.5 mph 23.0 mph N/A   Clear
1:52 PM 75.9 °F 35.1 °F 23% 29.53 in 10.0 mi South 11.5 mph 16.1 mph N/A   Clear
2:52 PM 77.0 °F 34.0 °F 21% 29.50 in 10.0 mi SW 13.8 mph 23.0 mph N/A   Clear
3:52 PM 75.9 °F 36.0 °F 23% 29.49 in 10.0 mi SW 15.0 mph 23.0 mph N/A   Clear
4:52 PM 73.9 °F 36.0 °F 25% 29.48 in 10.0 mi SSW 12.7 mph - N/A   Scattered Clouds
5:52 PM 72.0 °F 37.9 °F 29% 29.47 in 10.0 mi South 13.8 mph - N/A   Partly Cloudy
6:52 PM 69.1 °F 39.9 °F 35% 29.49 in 10.0 mi WSW 12.7 mph 19.6 mph 0.00 in Rain Light Rain
7:52 PM 64.9 °F 44.1 °F 47% 29.49 in 10.0 mi SW 5.8 mph - 0.00 in   Overcast
8:52 PM 64.0 °F 45.0 °F 50% 29.49 in 10.0 mi SW 5.8 mph - N/A   Overcast
9:52 PM 59.0 °F 48.9 °F 69% 29.50 in 10.0 mi SW 9.2 mph - 0.00 in Rain Light Rain
10:52 PM 57.0 °F 51.1 °F 81% 29.49 in 10.0 mi Calm Calm - 0.01 in   Overcast
11:52 PM 57.0 °F 51.1 °F 81% 29.48 in 10.0 mi Calm Calm - N/A   Overcast